Location: Krasnoyarskiy Pitomnik
(51.1333°N, 71.6167°E)
Time: 00:29:17
(UTC+00:00)

A-11 Canister half - Pass Details

Date: 15 April 2024
Orbit: 1514 x 1685 km, 47.2° (Epoch: 19 May)

Event Time Altitude Azimuth Distance (km) Brightness Sun altitude
Rises 15:28:19 0° 284° (WNW) 4,834 13.1 -11.9°
Reaches altitude 10° 15:33:36 10° 261° (W) 3,879 11.8 -12.6°
Maximum altitude 15:37:50 14° 235° (SW) 3,615 11.2 -13.1°
Drops below altitude 10° 15:42:07 10° 209° (SSW) 3,917 11.1 -13.7°
Sets 15:47:34 0° 186° (S) 4,919 11.3 -14.4°
